Tracking 27107 objects as of 21-Mar-2023
HD Live streaming from Space Station
objects crossing your sky now

COSMOS 1818 COOLANT

Track COSMOS 1818 COOLANT now!
10-day predictions


NORAD ID: 50789
Int'l Code: 1987-011BE
Perigee: 772.3 km
Apogee: 790.4 km
Inclination: 65.0 °
Period: 100.3 minutes
Semi major axis: 7152 km
RCS: Unknown
Launch date: February 1, 1987
Source: Commonwealth of Independent States (former USSR) (CIS)
Launch site: TYURATAM MISSILE AND SPACE COMPLEX (TTMTR)

Note: This is SATELLITE DEBRIS
Your satellite tracking list
Your tracking list is empty




NASA's NSSDC Master Catalog

Two Line Element Set (TLE):
1 50789U 87011BE  23064.11552175  .00001699  00000-0  62698-3 0  9997
2 50789  65.0132 319.7900 0012661 271.5074 160.3131 14.35248094658249
Source of the keplerian elements: AFSPC